Wind_Speed
68 70 72 74 76 79 81 83 84 84 85 83 81 80 79 76 69 60 57 57 55 57 60 61 65 68 69 72 74 76 78 81 83 83 85 86 86 87
71 72 76 76 79 81 80 80 81 75 73 77 80 76 67 61 59 55 54 56 60 64 67 70 72 73 75 79 83 84 85 85 89 89 90 90 91 89
74 76 77 79 80 81 84 82 79 79 74 67 61 61 60 58 59 59 61 64 68 71 75 76 79 81 83 84 86 90 93 95 97 98 98 99 98 98
76 79 82 81 75 76 75 75 67 63 59 58 62 61 59 60 63 66 72 76 76 77 79 82 84 86 89 90 93 95 97 99 101 102 100 103 101 102
76 68 65 68 65 57 56 57 58 60 62 62 64 64 66 70 72 73 76 79 81 82 84 87 91 91 94 97 100 103 104 104 103 102 104 107 107 111
60 52 48 49 52 54 56 57 59 61 64 66 69 72 74 75 77 80 82 85 86 89 92 94 96 97 100 100 106 108 109 107 106 108 110 113 119 120
45 47 50 54 58 60 63 66 66 67 69 70 73 77 76 80 82 86 89 91 95 97 100 101 103 104 108 110 109 112 109 107 108 114 119 122 126 130
50 53 56 60 63 67 71 74 77 81 82 84 84 85 89 88 90 92 95 98 103 105 105 107 110 111 114 113 117 114 115 118 120 121 125 131 134 134
55 57 60 62 64 69 72 76 80 84 87 90 91 93 96 98 100 101 103 104 104 106 110 114 117 114 114 120 120 121 122 123 126 131 137 137 130 130
60 63 66 69 72 75 77 81 85 88 91 96 95 99 101 102 103 105 108 111 115 118 117 117 117 118 121 123 125 123 126 131 137 135 134 133 133 131
69 72 73 75 79 84 88 89 92 97 101 103 105 107 109 112 114 117 118 120 120 119 118 117 116 117 118 122 127 130 135 139 136 137 135 133 131 132
74 79 81 85 91 89 88 94 97 101 103 104 106 108 108 107 106 104 104 107 108 110 111 115 117 121 122 128 130 130 133 135 134 132 130 132 131 127
81 85 89 96 92 93 93 93 93 93 93 96 94 91 93 97 99 105 106 108 111 116 118 118 120 123 126 123 123 126 125 125 128 128 127 126 123 120
90 95 97 92 90 90 91 87 90 95 97 95 94 101 109 112 114 113 116 121 123 121 120 124 123 128 128 123 118 119 120 117 117 117 118 115 109 106
98 96 93 92 84 89 87 95 99 104 107 111 114 118 121 125 120 124 129 130 130 132 130 132 131 127 123 117 114 111 108 110 109 103 100 97 94 93
92 92 84 87 94 98 95 100 106 110 115 119 124 125 125 131 132 134 133 133 136 140 137 133 128 122 117 116 111 105 101 98 96 91 87 88 86 83
88 75 84 89 101 109 109 108 112 114 120 122 125 129 131 135 139 137 132 136 140 133 130 126 123 121 117 111 102 98 92 92 87 82 80 79 75 73
77 83 95 98 101 105 108 114 118 120 122 125 128 129 133 141 142 135 135 136 127 127 120 114 113 111 108 107 95 84 85 83 80 75 71 68 64 62
84 90 96 100 103 107 114 117 119 123 129 133 134 137 142 145 135 131 129 126 125 119 117 110 101 97 94 93 92 82 79 76 70 65 62 58 56 55
92 101 103 106 111 117 118 121 126 130 132 135 139 143 141 132 131 128 123 119 116 113 107 100 95 89 84 82 83 79 69 65 61 58 55 52 51 49
100 105 108 111 117 121 126 129 130 134 137 141 143 132 131 127 124 118 114 111 107 102 98 92 86 82 80 77 72 67 63 59 56 52 50 47 45 43
106 108 113 119 119 123 128 132 134 138 142 138 130 129 123 117 112 112 108 104 100 95 88 83 81 80 74 69 65 61 57 53 50 47 44 41 38 36
110 116 119 122 126 129 133 136 140 139 135 132 126 120 111 112 110 105 101 97 90 84 81 81 77 71 67 62 59 53 50 47 45 42 39 35 34 32
Wind_Direction
267 268 271 273 275 277 279 281 283 283 283 282 283 287 290 292 292 290 291 293 294 292 292 295 296 298 298 299 300 300 302 302 302 304 303 304 304 305
270 271 273 275 277 279 279 279 280 279 279 284 290 294 292 290 288 288 288 292 291 292 293 295 296 297 299 301 302 303 302 303 302 303 304 303 302 303
270 271 273 274 273 274 277 278 280 284 289 291 288 286 287 288 288 287 288 291 294 295 296 298 299 299 300 301 302 302 302 302 303 303 303 302 305 307
268 269 271 277 278 279 280 283 289 290 288 288 287 287 286 287 287 288 290 291 294 295 295 297 298 298 299 301 302 304 304 303 303 301 300 300 303 305
272 276 276 278 282 284 285 286 288 290 291 291 288 283 286 288 289 290 291 292 292 292 294 296 296 299 300 301 302 303 302 303 300 299 299 301 302 300
279 278 278 281 284 287 287 289 289 290 290 289 287 285 286 287 288 289 290 291 291 291 293 296 297 298 300 298 300 302 301 300 299 298 298 297 297 297
279 282 283 285 287 288 290 290 290 289 289 289 289 289 287 287 288 289 291 292 292 292 293 295 297 296 298 299 301 301 298 296 295 294 295 296 298 298
282 285 287 288 288 288 287 288 288 287 286 286 286 286 289 291 290 289 290 292 292 292 292 294 296 296 297 298 300 298 296 296 296 296 297 297 296 296
283 287 289 290 290 289 289 290 292 291 289 287 287 286 286 287 288 289 290 290 291 292 292 294 296 296 295 296 296 295 296 296 295 295 294 293 292 291
284 284 285 286 288 288 289 288 287 287 288 288 286 286 287 288 289 289 290 291 292 293 293 293 294 294 295 296 296 295 294 295 293 291 293 292 291 292
288 289 288 290 288 286 285 285 286 286 285 285 285 286 285 286 287 289 290 292 293 293 295 297 296 295 293 294 294 293 293 292 294 293 293 294 293 292
284 285 288 289 290 291 288 289 285 285 286 287 286 286 289 291 293 297 298 298 298 297 297 299 297 296 294 293 294 293 293 293 295 295 294 292 293 293
286 287 287 291 292 293 292 290 286 287 287 288 291 296 300 300 299 302 302 301 302 302 299 299 297 295 295 293 293 294 295 294 293 294 294 294 293 293
285 288 293 294 293 292 292 290 289 292 295 298 300 302 306 307 308 307 309 310 307 303 301 302 300 298 298 298 298 296 296 296 295 293 292 292 293 291
291 295 294 294 293 297 295 293 293 294 297 300 302 303 306 309 310 309 308 308 308 308 303 300 300 301 300 300 298 298 298 296 294 294 293 292 290 289
293 292 296 299 299 294 289 291 297 296 298 301 302 304 305 307 308 307 307 310 308 304 301 302 303 302 301 302 303 302 300 298 295 295 295 292 290 288
291 294 290 287 281 284 291 293 296 295 298 299 300 302 304 305 307 307 306 306 304 302 305 305 303 304 305 303 303 302 302 298 298 296 293 290 290 289
286 286 283 280 284 288 290 293 295 295 296 298 302 303 304 307 306 305 305 305 305 304 303 303 304 305 304 304 303 304 301 298 298 296 294 292 291 288
284 285 286 287 288 288 290 292 293 294 297 300 301 303 304 305 306 307 305 306 306 306 304 306 305 306 304 304 303 305 302 301 299 297 294 293 290 287
285 284 286 288 286 288 291 291 293 295 297 301 303 303 307 303 305 305 304 306 305 307 308 307 308 306 305 305 304 304 303 301 299 298 296 293 290 286
280 280 284 286 288 289 291 293 293 295 297 303 306 304 304 306 306 304 306 306 308 308 308 308 307 307 307 307 305 304 303 303 301 299 296 293 290 288
280 281 282 286 290 289 292 296 297 300 300 304 305 306 307 306 306 307 308 309 309 309 308 308 310 309 308 307 306 306 305 304 303 300 297 295 292 289
277 279 283 288 290 291 296 299 301 304 304 303 307 307 307 307 308 309 311 310 309 309 310 310 310 309 307 307 306 307 307 307 304 301 300 296 292 288
Height
10622 10623 10622 10620 10618 10615 10611 10608 10608 10604 10597 10586 10585 10577 10573 10568 10563 10558 10553 10549 10546 10541 10536 10531 10526 10520 10514 10508 10501 10494 10486 10478 10470 10463 10452 10444 10437 10430
10610 10610 10608 10607 10606 10601 10595 10592 10589 10590 10591 10573 10566 10558 10553 10549 10547 10545 10541 10537 10531 10525 10519 10514 10509 10503 10495 10487 10479 10472 10464 10456 10447 10440 10432 10424 10416 10407
10599 10598 10595 10593 10587 10584 10580 10575 10571 10568 10568 10560 10553 10547 10544 10538 10531 10528 10524 10520 10515 10508 10501 10495 10488 10481 10474 10467 10458 10448 10439 10429 10419 10409 10401 10394 10383 10375
10587 10584 10578 10578 10572 10568 10563 10558 10552 10549 10547 10547 10539 10535 10529 10525 10521 10514 10507 10502 10496 10490 10482 10474 10466 10459 10451 10444 10435 10427 10417 10407 10394 10384 10374 10368 10358 10351
10571 10568 10564 10560 10556 10549 10546 10543 10538 10534 10530 10529 10526 10521 10516 10511 10505 10498 10491 10483 10477 10470 10464 10456 10447 10440 10430 10419 10411 10401 10391 10381 10371 10358 10347 10338 10331 10327
10557 10554 10551 10547 10542 10537 10533 10530 10526 10521 10516 10511 10507 10503 10499 10493 10487 10480 10471 10464 10457 10449 10441 10435 10426 10416 10409 10400 10389 10375 10362 10351 10340 10331 10323 10315 10305 10297
10545 10542 10539 10534 10529 10524 10520 10516 10511 10506 10499 10494 10487 10480 10479 10472 10466 10459 10452 10443 10435 10427 10418 10410 10402 10393 10381 10369 10358 10346 10335 10326 10318 10307 10297 10286 10274 10261
10532 10528 10524 10520 10516 10510 10504 10499 10493 10487 10481 10472 10467 10461 10454 10448 10442 10434 10427 10419 10411 10402 10396 10385 10375 10364 10352 10341 10330 10317 10306 10296 10286 10275 10264 10252 10238 10227
10517 10514 10510 10506 10500 10495 10490 10482 10475 10467 10461 10453 10445 10439 10431 10424 10416 10408 10400 10394 10385 10376 10369 10363 10344 10336 10326 10313 10298 10287 10275 10263 10251 10240 10228 10216 10204 10191
10501 10497 10492 10487 10482 10476 10470 10463 10455 10447 10439 10431 10422 10415 10408 10399 10391 10381 10373 10363 10354 10343 10338 10332 10321 10311 10298 10283 10267 10253 10240 10226 10210 10196 10184 10171 10160 10149
10481 10476 10471 10466 10460 10454 10447 10440 10433 10423 10414 10406 10397 10389 10380 10371 10364 10353 10344 10336 10327 10311 10301 10294 10286 10282 10269 10256 10235 10216 10198 10178 10164 10150 10139 10127 10116 10105
10463 10457 10451 10445 10439 10430 10423 10415 10406 10396 10386 10378 10368 10360 10353 10344 10334 10327 10316 10304 10293 10282 10267 10256 10243 10233 10232 10213 10196 10175 10156 10140 10124 10110 10098 10084 10073 10060
10441 10436 10429 10422 10412 10405 10397 10387 10377 10368 10358 10350 10343 10336 10327 10317 10307 10295 10282 10270 10255 10241 10227 10215 10204 10190 10177 10177 10163 10141 10126 10111 10090 10071 10056 10042 10034 10024
10420 10412 10406 10396 10389 10380 10371 10360 10351 10340 10331 10323 10317 10308 10296 10283 10270 10255 10241 10227 10212 10199 10187 10171 10158 10141 10130 10120 10117 10105 10083 10069 10049 10038 10026 10007 9995 9985
10397 10389 10382 10375 10363 10355 10346 10335 10324 10315 10307 10296 10287 10276 10264 10252 10237 10225 10211 10196 10178 10162 10145 10128 10115 10100 10082 10069 10064 10057 10050 10036 10010 9996 9988 9975 9965 9952
10374 10366 10359 10351 10342 10331 10324 10313 10303 10293 10283 10271 10260 10247 10235 10222 10209 10196 10181 10166 10150 10128 10106 10092 10077 10061 10045 10027 10018 10014 10000 9987 9973 9961 9955 9943 9931 9925
10350 10347 10338 10330 10320 10310 10302 10291 10284 10272 10260 10248 10235 10222 10208 10194 10178 10164 10147 10133 10116 10099 10078 10058 10041 10024 10005 9991 9986 9975 9968 9945 9937 9935 9923 9910 9905 9899
10327 10325 10315 10305 10297 10288 10279 10269 10257 10245 10232 10220 10209 10194 10177 10164 10148 10130 10113 10096 10078 10060 10042 10025 10015 10001 9975 9950 9949 9953 9932 9922 9911 9903 9896 9887 9882 9875
10305 10300 10293 10283 10273 10265 10253 10242 10229 10218 10204 10193 10180 10164 10148 10132 10114 10096 10078 10061 10043 10023 10008 9996 9984 9972 9957 9937 9915 9917 9905 9893 9887 9880 9871 9866 9860 9855
10285 10278 10268 10261 10250 10238 10228 10216 10203 10192 10177 10164 10150 10134 10119 10099 10081 10063 10044 10027 10012 9995 9978 9965 9954 9941 9930 9917 9900 9884 9882 9873 9864 9857 9851 9846 9840 9836
10263 10254 10245 10236 10224 10212 10202 10187 10175 10163 10150 10135 10118 10103 10086 10068 10048 10030 10014 9998 9982 9968 9953 9941 9928 9915 9903 9890 9879 9870 9860 9852 9845 9839 9833 9828 9825 9821
10241 10230 10220 10210 10200 10185 10172 10161 10147 10135 10120 10105 10089 10071 10054 10036 10019 10004 9987 9971 9955 9943 9929 9917 9906 9892 9881 9870 9859 9851 9844 9836 9829 9824 9818 9814 9811 9808
10212 10202 10191 10182 10170 10160 10148 10134 10117 10103 10090 10073 10057 10041 10022 10006 9991 9975 9961 9947 9934 9920 9908 9894 9886 9874 9861 9852 9843 9836 9829 9823 9815 9810 9807 9802 9798 9795